Stations météo

réclame
Mon MeteoGroup
Manston, Grande-Bretagne (3797): Température de l'air & dewpoint: 12.12.2017 22:00:00 - 18.12.2017 22:00:00 (GMT)Manston, Grande-Bretagne (3797): Température de l'air -20cm & Température de l'air -100cm: 12.12.2017 22:00:00 - 18.12.2017 22:00:00 (GMT)Manston, Grande-Bretagne (3797): Vitesse du vent & gusts: 12.12.2017 22:00:00 - 18.12.2017 22:00:00 (GMT)Manston, Grande-Bretagne (3797): Direction du vent: 12.12.2017 22:00:00 - 18.12.2017 22:00:00 (GMT)Manston, Grande-Bretagne (3797): reduced air pressure: 12.12.2017 22:00:00 - 18.12.2017 22:00:00 (GMT)Manston, Grande-Bretagne (3797): visibility: 12.12.2017 22:00:00 - 18.12.2017 22:00:00 (GMT)Manston, Grande-Bretagne (3797): Ensoleillement: 12.12.2017 22:00:00 - 18.12.2017 22:00:00 (GMT)Manston, Grande-Bretagne (3797): Quantités de précipitations: 12.12.2017 22:00:00 - 18.12.2017 22:00:00 (GMT)
Date & Time tt [°C] td [°C] tt -20cm [°C] tt -100cm [°C] ff [km/h] ff [knt] fx [km/h] fx [knt] dd ppp [hPa] vv [km] sd [min] rr [mm]
18.12.2017 22:00:00 1,5 1,1 - - 13 7 - - WNW 1033,7 9 0 0,0
18.12.2017 21:00:00 2,2 1,8 - - 11 6 - - WNW 1033,2 9 0 0,0
18.12.2017 20:00:00 2,7 2,2 - - 9 5 - - WNW 1032,9 9 0 0,0
18.12.2017 19:00:00 2,8 2,2 - - 9 5 - - WNW 1032,1 9 0 0,0
18.12.2017 18:00:00 3,8 3,2 - - 13 7 - - NW 1031,8 12 0 0,0
18.12.2017 17:00:00 3,9 3,2 - - 13 7 - - WNW 1031,3 11 0 0,0
18.12.2017 16:00:00 4,3 3,3 - - 8 4 - - WNW 1030,6 13 - 0,0
18.12.2017 15:00:00 5,4 3,8 - - 11 6 - - NW 1029,9 12 42 0,0
18.12.2017 14:00:00 5,8 3,9 - - 15 8 - - NW 1029,6 16 60 0,0
18.12.2017 13:00:00 5,9 4,2 - - 15 8 - - NW 1029,2 11 60 0,0
18.12.2017 12:00:00 5,3 3,6 - - 16 9 - - NW 1028,9 13 60 0,0
18.12.2017 11:00:00 5,2 3,5 - - 15 8 - - NNW 1028,7 16 60 0,0
18.12.2017 10:00:00 4,5 2,9 - - 13 7 - - NNW 1028,3 15 42 0,0
18.12.2017 09:00:00 3,5 2,3 4,7 8,0 16 9 - - NNW 1027,3 14 0 0,0
18.12.2017 08:00:00 3,0 1,7 - - 16 9 - - NNW 1026,3 17 0 0,0
18.12.2017 07:00:00 3,3 1,5 - - 18 10 - - NNW 1025,3 18 0 0,0
18.12.2017 06:00:00 3,6 1,6 - - 22 12 - - NNW 1024,5 17 0 0,0
18.12.2017 05:00:00 4,0 2,2 - - 24 13 - - NNW 1023,4 16 0 0,0
18.12.2017 04:00:00 4,4 2,9 - - 24 13 - - NW 1022,9 15 0 0,0
18.12.2017 03:00:00 5,0 3,5 - - 26 14 - - NNW 1022,0 15 0 0,0
18.12.2017 02:00:00 5,6 4,2 - - 26 14 - - NW 1021,3 17 0 0,0
18.12.2017 01:00:00 6,8 4,9 - - 29 16 - - NW 1020,4 20 0 0,0
18.12.2017 00:00:00 7,4 6,9 - - 22 12 - - WNW 1019,8 8 - 0,0
17.12.2017 23:00:00 8,8 8,0 - - 28 15 - - WNW 1019,2 17 0 0,0
17.12.2017 22:00:00 9,2 8,3 - - 26 14 - - W 1018,7 28 0 0,0
17.12.2017 21:00:00 8,9 8,2 - - 26 14 - - W 1018,9 45 0 0,0
17.12.2017 20:00:00 8,4 7,7 - - 24 13 - - WSW 1018,8 45 0 0,0
17.12.2017 19:00:00 7,8 7,4 - - 26 14 - - SW 1019,1 30 0 0,4
17.12.2017 18:00:00 7,3 7,1 - - 22 12 - - SSW 1020,0 24 0 0,4
17.12.2017 17:00:00 6,6 6,2 - - 21 11 - - SSW 1021,1 16 0 0,4
17.12.2017 16:00:00 5,4 4,8 - - 21 11 - - SSW 1021,7 6 0 0,6
17.12.2017 15:00:00 4,5 3,7 - - 15 8 - - SSW 1022,8 8 - 0,4
17.12.2017 14:00:00 3,8 2,1 - - 15 8 - - SW 1023,7 19 0 0,0
17.12.2017 13:00:00 3,7 0,7 - - 15 8 - - SSW 1024,1 40 0 0,0
17.12.2017 12:00:00 3,4 1,1 - - 9 5 - - SSW 1024,6 35 18 0,2
17.12.2017 11:00:00 2,5 0,4 - - 13 7 - - SW 1025,3 23 60 0,0
17.12.2017 10:00:00 0,4 -0,3 - - 9 5 - - SSW 1025,4 5 60 0,0
17.12.2017 09:00:00 -1,3 -1,7 3,7 8,0 13 7 - - W 1025,5 3,5 18 0,0
17.12.2017 08:00:00 -2,3 -2,8 - - 9 5 - - SW 1025,1 2,9 0 0,0
17.12.2017 07:00:00 -0,7 -1,1 - - 13 7 - - WNW 1024,5 4,1 0 0,0
17.12.2017 06:00:00 -0,1 -0,4 - - 16 9 - - WNW 1024,2 5 0 0,0
17.12.2017 05:00:00 -0,3 -0,7 - - 16 9 - - WNW 1024,1 4,8 0 0,0
17.12.2017 04:00:00 -0,2 -0,8 - - 13 7 - - WNW 1023,9 5 0 0,0
17.12.2017 03:00:00 0,5 0,1 - - 13 7 - - WNW 1023,6 8 0 0,0
17.12.2017 02:00:00 0,3 -0,2 - - 13 7 - - W 1023,2 6 0 0,0
17.12.2017 01:00:00 -0,8 -1,8 - - 11 6 - - W 1022,9 6 0 0,0
17.12.2017 00:00:00 0,8 0,3 - - 11 6 - - WNW 1022,9 11 - 0,0
16.12.2017 23:00:00 1,3 0,7 - - 11 6 - - WNW 1022,0 9 0 0,0
16.12.2017 22:00:00 2,1 1,2 - - 13 7 - - NW 1021,6 11 0 0,0
16.12.2017 21:00:00 2,7 1,6 - - 13 7 - - NW 1020,8 18 0 0,0
16.12.2017 20:00:00 3,6 1,9 - - 18 10 - - NW 1020,4 28 0 0,0
16.12.2017 19:00:00 3,7 2,2 - - 15 8 - - WNW 1019,8 26 0 0,0
16.12.2017 18:00:00 3,7 2,0 - - 16 9 - - W 1019,3 40 0 0,0
16.12.2017 17:00:00 3,0 0,1 - - 15 8 - - W 1018,8 16 0 0,0
16.12.2017 16:00:00 2,8 -0,2 - - 16 9 - - WNW 1018,7 45 0 0,0
16.12.2017 15:00:00 3,7 -1,0 - - 21 11 - - W 1018,2 35 48 0,0
16.12.2017 14:00:00 3,2 -0,7 - - 22 12 - - W 1017,6 30 60 0,0
16.12.2017 13:00:00 3,1 -0,2 - - 22 12 - - W 1017,4 29 60 0,0
16.12.2017 12:00:00 3,0 -0,4 - - 22 12 - - WNW 1017,4 25 60 0,0
16.12.2017 11:00:00 2,9 -0,5 - - 21 11 - - WNW 1017,3 35 60 0,0
16.12.2017 10:00:00 2,3 -0,7 - - 21 11 - - WNW 1016,8 40 60 0,0
16.12.2017 09:00:00 2,0 -0,7 4,2 8,2 21 11 - - WNW 1016,0 35 24 0,0
16.12.2017 08:00:00 1,5 -0,7 - - 21 11 - - NW 1014,9 40 0 0,0
16.12.2017 07:00:00 1,8 -0,5 - - 28 15 - - NW 1014,1 40 0 0,0
16.12.2017 06:00:00 1,8 -0,2 - - 29 16 - - NW 1013,1 30 0 0,0
16.12.2017 05:00:00 1,8 -0,1 - - 29 16 - - NW 1012,4 35 0 0,0
16.12.2017 04:00:00 2,1 0,1 - - 29 16 46 25 NW 1011,9 40 0 0,0
16.12.2017 03:00:00 2,3 0,9 - - 29 16 - - NW 1011,3 24 0 0,0
16.12.2017 02:00:00 2,2 1,2 - - 26 14 - - NW 1010,5 16 0 0,0
16.12.2017 01:00:00 2,8 1,8 - - 31 17 - - NW 1009,6 14 0 0,0
16.12.2017 00:00:00 3,1 2,0 - - 29 16 48 26 NW 1008,6 15 - 0,0
15.12.2017 23:00:00 3,6 2,4 - - 34 18 48 26 NW 1007,8 14 0 0,0
15.12.2017 22:00:00 3,7 2,5 - - 34 18 50 27 NW 1006,7 14 0 0,0
15.12.2017 21:00:00 4,1 3,1 - - 31 17 48 26 NW 1005,7 18 0 0,0
15.12.2017 20:00:00 4,0 3,0 - - 31 17 48 26 NW 1004,7 22 0 0,0
15.12.2017 19:00:00 4,2 3,1 - - 31 17 46 25 NW 1003,7 21 0 0,0
15.12.2017 18:00:00 4,5 3,4 - - 31 17 - - NNW 1002,3 11 0 0,0
15.12.2017 17:00:00 4,0 2,8 - - 31 17 46 25 NW 1001,1 28 0 0,0
15.12.2017 16:00:00 4,4 2,9 - - 34 18 50 27 NW 999,7 30 0 0,0
15.12.2017 15:00:00 4,4 2,7 - - 34 18 52 28 NW 998,4 27 18 0,0
15.12.2017 14:00:00 4,5 2,8 - - 31 17 - - NW 997,4 35 0 0,0
15.12.2017 13:00:00 4,2 2,6 - - 31 17 46 25 NW 996,7 28 0 0,0
15.12.2017 12:00:00 3,8 2,1 - - 31 17 48 26 NW 995,8 24 0 0,0
15.12.2017 11:00:00 3,6 2,4 - - 24 13 - - NW 995,2 17 0 0,0
15.12.2017 10:00:00 3,3 2,4 - - 21 11 - - WNW 994,2 22 0 0,2
15.12.2017 09:00:00 2,2 1,8 4,2 8,4 16 9 - - WNW 993,3 20 0 0,6
15.12.2017 08:00:00 2,8 2,2 - - 15 8 - - WNW 992,3 5 0 0,6
15.12.2017 07:00:00 1,9 0,9 - - 11 6 - - WSW 991,6 30 0 0,0
15.12.2017 06:00:00 2,0 0,8 - - 15 8 - - WSW 991,0 35 0 0,0
15.12.2017 05:00:00 1,5 0,4 - - 16 9 - - SW 991,0 30 0 0,0
15.12.2017 04:00:00 0,6 -0,3 - - 18 10 - - SW 990,8 22 0 0,0
15.12.2017 03:00:00 0,1 -0,3 - - 16 9 - - SW 990,6 16 0 0,0
15.12.2017 02:00:00 0,2 -0,4 - - 13 7 - - WSW 990,3 17 0 0,0
15.12.2017 01:00:00 0,5 -0,3 - - 11 6 - - WSW 989,9 15 0 0,0
15.12.2017 00:00:00 1,0 -0,2 - - 16 9 - - WSW 989,5 17 - 0,0
14.12.2017 23:00:00 1,1 -0,3 - - 13 7 - - SW 989,0 21 0 0,0
14.12.2017 22:00:00 1,1 -0,3 - - 16 9 - - SW 989,1 22 0 0,0
14.12.2017 21:00:00 0,9 -0,5 - - 13 7 - - SW 989,6 25 0 0,0
14.12.2017 20:00:00 1,0 -0,3 - - 13 7 - - SSW 989,6 26 0 0,0
14.12.2017 19:00:00 1,1 -0,6 - - 9 5 - - S 989,3 26 0 0,0
14.12.2017 18:00:00 1,4 -0,4 - - 13 7 - - SW 989,1 20 0 0,0
14.12.2017 17:00:00 2,3 0,2 - - 15 8 - - SW 989,3 20 0 0,0
14.12.2017 16:00:00 3,4 0,5 - - 16 9 - - WSW 989,5 27 6 0,0
14.12.2017 15:00:00 5,0 1,0 - - 21 11 - - WSW 989,8 35 60 0,0
14.12.2017 14:00:00 5,8 1,1 - - 22 12 - - WSW 990,6 22 30 0,0
14.12.2017 13:00:00 5,5 1,3 - - 29 16 - - W 991,3 30 54 0,0
14.12.2017 12:00:00 5,5 1,6 - - 26 14 - - WSW 992,2 35 48 0,0
14.12.2017 11:00:00 4,8 1,0 - - 28 15 46 25 WSW 992,8 30 30 0,0
14.12.2017 10:00:00 4,6 1,5 - - 29 16 - - WSW 993,0 27 54 0,0
14.12.2017 09:00:00 3,7 1,0 5,0 8,5 29 16 - - WSW 993,1 25 - 0,0
14.12.2017 08:00:00 3,4 0,7 - - 29 16 46 25 WSW 993,0 35 0 0,0
14.12.2017 07:00:00 3,6 0,5 - - 28 15 - - WSW 993,1 35 - 0,0
14.12.2017 06:00:00 3,8 1,0 - - 34 18 48 26 WSW 993,2 22 0 0,0
14.12.2017 05:00:00 3,4 0,8 - - 29 16 - - WSW 993,3 28 0 0,0
14.12.2017 04:00:00 2,6 0,0 - - 24 13 - - WSW 993,3 35 0 0,0
14.12.2017 03:00:00 2,9 0,0 - - 34 18 57 31 WSW 993,4 27 0 0,0
14.12.2017 02:00:00 2,9 -0,1 - - 37 20 65 35 W 992,9 45 0 0,0
14.12.2017 01:00:00 3,9 0,9 - - 46 25 70 38 W 991,7 35 0 0,2
14.12.2017 00:00:00 3,7 1,9 - - 48 26 76 41 W 990,2 12 - 0,4
13.12.2017 23:00:00 4,5 2,2 - - 28 15 - - W 989,3 30 0 0,0
13.12.2017 22:00:00 4,2 1,5 - - 16 9 - - SW 989,6 40 0 0,0
13.12.2017 21:00:00 3,8 1,5 - - 26 14 - - WSW 990,6 40 0 0,0
13.12.2017 20:00:00 3,5 1,2 - - 22 12 - - WSW 991,4 35 0 0,0
13.12.2017 19:00:00 5,1 1,5 - - 35 19 55 30 W 991,2 50 0 0,0
13.12.2017 18:00:00 6,2 3,4 - - 41 22 65 35 WNW 990,3 45 0 0,2
13.12.2017 17:00:00 7,8 6,2 - - 48 26 76 41 WSW 990,3 6 0 1,2
13.12.2017 16:00:00 8,5 7,2 - - 24 13 - - SW 990,8 17 0 0,0
13.12.2017 15:00:00 8,4 6,9 - - 26 14 - - SSW 992,3 16 6 0,0
13.12.2017 14:00:00 8,1 6,6 - - 24 13 - - SSW 994,5 19 0 0,2
13.12.2017 13:00:00 7,7 6,2 - - 22 12 - - SSW 996,1 19 0 0,0
13.12.2017 12:00:00 7,0 5,4 - - 21 11 - - SW 998,0 30 0 0,0
13.12.2017 11:00:00 6,8 5,5 - - 26 14 - - WSW 999,4 13 0 0,0
13.12.2017 10:00:00 6,4 4,9 - - 26 14 - - SW 1000,0 23 0 0,0
13.12.2017 09:00:00 6,0 5,0 4,4 8,7 22 12 - - WSW 1000,4 25 0 0,0
13.12.2017 08:00:00 6,5 5,5 - - 28 15 46 25 W 1000,2 21 0 0,0
13.12.2017 07:00:00 8,1 7,8 - - 22 12 - - WSW 999,7 35 0 0,2
13.12.2017 06:00:00 8,1 7,7 - - 29 16 54 29 SSW 1000,0 2,4 0 0,2
13.12.2017 05:00:00 7,6 7,1 - - 35 19 54 29 SSW 1000,8 3,9 0 0,2
13.12.2017 04:00:00 7,3 6,7 - - 39 21 57 31 SSW 1002,1 4,3 0 0,0
13.12.2017 03:00:00 7,1 6,3 - - 39 21 59 32 SSW 1003,4 5 0 0,2
13.12.2017 02:00:00 7,1 5,8 - - 35 19 54 29 SSW 1004,7 11 0 0,2
13.12.2017 01:00:00 6,3 5,5 - - 26 14 - - S 1006,1 9 0 0,6
13.12.2017 00:00:00 5,6 4,6 - - 18 10 - - S 1007,3 15 - 0,0
12.12.2017 23:00:00 4,9 3,4 - - 22 12 - - S 1008,3 30 0 0,0
12.12.2017 22:00:00 3,8 2,2 - - 15 8 - - S 1009,1 40 0 0,0

tt = Température de l'air
td = dewpoint
tt -20cm = Température de l'air -20cm
tt -100cm = Température de l'air -100cm
ff = Vitesse du vent
fx = gusts
dd = Direction du vent
ppp = reduced air pressure
vv = visibility
sd = Ensoleillement
rr = Quantités de précipitations

stations d'obs. à proximité